sat.trackr.live / text

‹ back to catalog

BEIDOU-3 M27 (C49)

NORAD 61187 · 2024-168C

PAYLOAD ACTIVE UNKNOWN

§ Identity

Operator
Country
PRC
Launch date
2024-09-19
Launch site
XICLF
Launch vehicle
Mass (kg)
RCS (m²)

Purposes: nav

External: N2YO · Heavens-Above · Gunter

§ Orbital elements

Epoch: 2026-05-24T15:13:32.052864Z

Period
773.24 min
Inclination
54.4902°
Eccentricity
0.0002125
Mean motion
1.86230188 rev/d
Perigee alt
21,522.2 km
Apogee alt
21,534.1 km
Semi-major
27,906.3 km
B*
0.0000e+0
RAAN
303.0427°
Arg perigee
47.5445°
Mean anomaly
314.5528°
Rev number
882

§ Raw data

BEIDOU-3 M27 (C49)1 61187U 24168C   26144.63439876 -.00000085  00000+0  00000+0 0  99992 61187  54.4902 303.0427 0002125  47.5445 314.5528  1.86230188  8820

JSON: /api/v1/satellites/61187 · /tle

For live sub-satellite position, see the globe view (requires WebGL).

§ Visibility from observer

Set your observer location to see the next 7 days of passes ≥ 10°. The values pass through the URL so the page stays shareable.

No JS? Fill the form by hand. The geolocation button needs JavaScript.